Waarnemingen

Advertentie
Mijn weer
Aberdeen/Dyce, Groot Brittannië (3091): temperatuur & dauwpunt: 17.09.2018 01:00:00 - 23.09.2018 01:00:00 (BST)Aberdeen/Dyce, Groot Brittannië (3091): temperatuur -20cm & temperatuur -100cm: 17.09.2018 01:00:00 - 23.09.2018 01:00:00 (BST)Aberdeen/Dyce, Groot Brittannië (3091): windsnelheid & windstoten: 17.09.2018 01:00:00 - 23.09.2018 01:00:00 (BST)Aberdeen/Dyce, Groot Brittannië (3091): windrichting: 17.09.2018 01:00:00 - 23.09.2018 01:00:00 (BST)Aberdeen/Dyce, Groot Brittannië (3091): luchtdruk: 17.09.2018 01:00:00 - 23.09.2018 01:00:00 (BST)Aberdeen/Dyce, Groot Brittannië (3091): zicht: 17.09.2018 01:00:00 - 23.09.2018 01:00:00 (BST)Aberdeen/Dyce, Groot Brittannië (3091): Zonneschijnduur: 17.09.2018 01:00:00 - 23.09.2018 01:00:00 (BST)Aberdeen/Dyce, Groot Brittannië (3091): neerslag: 17.09.2018 01:00:00 - 23.09.2018 01:00:00 (BST)
Datum & Tijd tt [°C] td [°C] tt -20cm [°C] tt -100cm [°C] ff [km/u] ff [kn] fx [km/u] fx [kn] dd ppp [hPa] vv [km] sd [min] rr [mm]
23.09.2018 01:00:00 7,0 3,0 - - 21 11 - - WNW - 10 - -
23.09.2018 00:00:00 7,0 4,0 - - 16 9 - - WNW - 10 - -
22.09.2018 23:00:00 7,0 4,0 - - 15 8 - - NW - 10 - -
22.09.2018 22:00:00 7,0 4,0 - - 13 7 - - W - 10 - -
22.09.2018 21:00:00 8,0 4,0 - - 15 8 - - W - 10 - -
22.09.2018 20:00:00 9,0 5,0 - - 11 6 - - WZW - 10 - -
22.09.2018 19:00:00 10,0 5,0 - - 15 8 - - WNW - 10 - -
22.09.2018 18:00:00 11,0 5,0 - - 22 12 - - NW - 10 - -
22.09.2018 17:00:00 12,0 4,0 - - 21 11 - - WNW - 10 - -
22.09.2018 16:00:00 12,0 6,0 - - 18 10 - - NW - 10 - -
22.09.2018 15:00:00 12,0 6,0 - - 22 12 - - NW - 10 - -
22.09.2018 14:00:00 14,0 5,0 - - 29 16 - - W - 10 - -
22.09.2018 13:00:00 13,0 5,0 - - 24 13 - - W - 10 - -
22.09.2018 12:00:00 12,0 5,0 - - 26 14 - - WNW - 10 - -
22.09.2018 11:00:00 12,0 5,0 - - 31 17 - - W - 10 - -
22.09.2018 10:00:00 11,0 4,0 - - 28 15 - - W - 10 - -
22.09.2018 09:00:00 10,0 3,0 - - 29 16 - - W - 10 - -
22.09.2018 08:00:00 8,0 2,0 - - 24 13 - - W - 10 - -
22.09.2018 07:00:00 7,0 2,0 - - 18 10 - - ZW - 10 - -
22.09.2018 06:00:00 7,0 2,0 - - 15 8 - - ZW - 10 - -
22.09.2018 05:00:00 7,0 2,0 - - 22 12 - - WZW - 10 - -
22.09.2018 04:00:00 8,0 3,0 - - 21 11 - - WZW - 10 - -
22.09.2018 03:00:00 8,0 2,0 - - 22 12 - - W - 10 - -
22.09.2018 02:00:00 6,0 2,0 - - 13 7 - - ZW - 10 - -
22.09.2018 01:00:00 7,0 2,0 - - 16 9 - - W - 10 - -
22.09.2018 00:00:00 8,0 3,0 - - 13 7 - - WZW - 10 - -
21.09.2018 23:00:00 7,0 3,0 - - 18 10 - - WZW - 10 - -
21.09.2018 22:00:00 7,0 3,0 - - 11 6 - - W - 10 - -
21.09.2018 21:00:00 9,0 4,0 - - 15 8 - - WZW - 10 - -
21.09.2018 20:00:00 9,0 3,0 - - 13 7 - - WZW - 10 - -
21.09.2018 19:00:00 10,0 4,0 - - 13 7 - - W - 10 - -
21.09.2018 18:00:00 11,0 4,0 - - 26 14 - - W - 10 - -
21.09.2018 17:00:00 10,0 5,0 - - 21 11 - - WNW - 10 - -
21.09.2018 16:00:00 10,0 6,0 - - 26 14 - - WNW - 10 - -
21.09.2018 15:00:00 9,0 6,0 - - 29 16 - - NW - 10 - -
21.09.2018 14:00:00 10,0 6,0 - - 28 15 - - NW - 10 - -
21.09.2018 13:00:00 10,0 6,0 - - 35 19 - - NW - 10 - -
21.09.2018 12:00:00 9,0 6,0 - - 35 19 - - NW - 7 - -
21.09.2018 11:00:00 8,0 6,0 - - 31 17 - - WNW - 7 - -
21.09.2018 10:00:00 8,0 5,0 - - 39 21 - - WNW - 10 - -
21.09.2018 09:00:00 8,0 5,0 - - 29 16 - - WNW - 10 - -
21.09.2018 08:00:00 8,0 5,0 - - 28 15 - - WNW - 10 - -
21.09.2018 07:00:00 8,0 5,0 - - 34 18 - - WNW - 10 - -
21.09.2018 06:00:00 8,0 5,0 - - 31 17 - - WNW - 10 - -
21.09.2018 05:00:00 8,0 6,0 - - 26 14 - - WNW - 10 - -
21.09.2018 04:00:00 8,0 6,0 - - 16 9 - - NW - 5 - -
21.09.2018 03:00:00 8,0 6,0 - - 16 9 - - NW - 10 - -
21.09.2018 02:00:00 8,0 6,0 - - 13 7 - - NW - 10 - -
21.09.2018 01:00:00 9,0 7,0 - - 5 3 - - - - 10 - -
21.09.2018 00:00:00 9,0 6,0 - - 5 3 - - NNO - 10 - -
20.09.2018 23:00:00 9,0 6,0 - - 5 3 - - - - 10 - -
20.09.2018 22:00:00 10,0 6,0 - - 5 3 - - - - 10 - -
20.09.2018 21:00:00 10,0 6,0 - - 13 7 - - ZW - 10 - -
20.09.2018 20:00:00 11,0 6,0 - - 9 5 - - ZZW - 10 - -
20.09.2018 19:00:00 11,0 5,0 - - 15 8 - - ZZW - 10 - -
20.09.2018 18:00:00 12,0 5,0 - - 16 9 - - ZZW - 10 - -
20.09.2018 17:00:00 12,0 6,0 - - 21 11 - - Z - 10 - -
20.09.2018 16:00:00 13,0 6,0 - - 24 13 - - Z - 10 - -
20.09.2018 15:00:00 14,0 4,0 - - 24 13 - - ZZW - 10 - -
20.09.2018 14:00:00 14,0 4,0 - - 24 13 - - ZZW - 10 - -
20.09.2018 13:00:00 15,0 4,0 - - 22 12 - - ZZW - 10 - -
20.09.2018 12:00:00 13,0 5,0 - - 35 19 - - ZW - 10 - -
20.09.2018 11:00:00 13,0 5,0 - - 42 23 - - ZW - 10 - -
20.09.2018 10:00:00 11,5 4,4 12,9 13,2 39 21 59 32 ZW 999,8 10 60 0,0
20.09.2018 09:00:00 10,5 4,7 - - 35 19 52 28 ZW 999,6 10 60 0,0
20.09.2018 08:00:00 9,5 4,1 - - 29 16 46 25 ZW 999,3 10 42 0,0
20.09.2018 07:00:00 9,0 4,1 - - 37 20 55 30 ZW 998,9 10 0 0,0
20.09.2018 06:00:00 9,0 3,8 - - 31 17 54 29 ZW 998,9 10 0 0,0
20.09.2018 05:00:00 9,0 4,2 - - 35 19 61 33 ZW 998,2 10 0 0,0
20.09.2018 04:00:00 8,6 3,8 - - 39 21 57 31 ZW 997,8 10 0 0,0
20.09.2018 03:00:00 8,7 3,7 - - 31 17 63 34 ZW 997,7 10 0 0,0
20.09.2018 02:00:00 9,4 4,6 - - 34 18 59 32 ZW 997,1 10 0 0,0
20.09.2018 01:00:00 9,7 4,4 - - 28 15 57 31 ZW 997,2 10 - 0,0
20.09.2018 00:00:00 9,6 4,2 - - 34 18 63 34 ZW 996,5 10 0 0,0
19.09.2018 23:00:00 9,6 3,6 - - 46 25 76 41 ZW 995,6 10 0 0,0
19.09.2018 22:00:00 9,9 4,3 - - 48 26 70 38 ZW 995,0 10 0 0,0
19.09.2018 21:00:00 10,5 4,2 - - 48 26 74 40 ZW 994,1 10 0 0,0
19.09.2018 20:00:00 10,6 5,5 - - 39 21 78 42 ZW 992,9 10 0 0,0
19.09.2018 19:00:00 11,2 5,5 - - 46 25 70 38 ZW 991,6 10 42 0,0
19.09.2018 18:00:00 12,7 5,6 - - 50 27 81 44 ZW 989,8 10 60 0,0
19.09.2018 17:00:00 14,2 5,1 - - 44 24 89 48 WZW 987,4 10 54 0,0
19.09.2018 16:00:00 14,8 8,1 - - 63 34 96 52 ZZW 983,7 10 24 0,0
19.09.2018 15:00:00 14,3 7,3 - - 61 33 102 55 ZZW 982,5 10 48 0,0
19.09.2018 14:00:00 14,0 8,6 - - 57 31 113 61 ZW 982,9 10 30 0,2
19.09.2018 13:00:00 13,7 11,7 - - 52 28 74 40 ZZO 982,3 8 0 1,4
19.09.2018 12:00:00 14,0 12,4 - - 52 28 74 40 ZZO 985,6 8 12 0,2
19.09.2018 11:00:00 12,0 11,2 - - 42 23 61 33 ZZO 988,9 6 0 0,8
19.09.2018 10:00:00 12,1 9,4 13,2 13,2 35 19 50 27 Z 993,2 10 0 0,0
19.09.2018 09:00:00 11,2 7,3 - - 24 13 54 29 Z 995,2 10 0 0,0
19.09.2018 08:00:00 11,2 6,6 - - 28 15 46 25 Z 996,1 10 6 0,0
19.09.2018 07:00:00 11,3 5,9 - - 16 9 54 29 WZW 996,5 10 0 0,0
19.09.2018 06:00:00 11,4 6,0 - - 31 17 52 28 ZW 996,4 10 0 0,0
19.09.2018 05:00:00 11,6 6,5 - - 34 18 48 26 ZW 996,6 10 0 0,0
19.09.2018 04:00:00 11,6 7,5 - - 21 11 57 31 ZZW 996,6 10 0 0,4
19.09.2018 03:00:00 13,1 9,8 - - 35 19 55 30 Z 996,0 10 0 0,2
19.09.2018 02:00:00 11,9 9,0 - - 21 11 - - ZZO 996,2 10 0 0,0
19.09.2018 01:00:00 13,1 9,2 - - 22 12 - - Z 996,5 10 - 0,0
19.09.2018 00:00:00 13,3 11,1 - - 18 10 - - Z 996,6 10 0 0,0
18.09.2018 23:00:00 13,1 11,3 - - 16 9 - - Z 996,3 10 0 0,0
18.09.2018 22:00:00 14,1 10,9 - - 16 9 - - Z 996,4 10 0 0,0
18.09.2018 21:00:00 14,7 10,5 - - 29 16 52 28 ZZW 996,2 10 0 0,0
18.09.2018 20:00:00 15,2 10,8 - - 37 20 55 30 ZZW 995,5 10 0 0,0
18.09.2018 19:00:00 16,7 10,2 - - 29 16 50 27 ZZW 994,8 10 18 0,0
18.09.2018 18:00:00 18,4 10,7 - - 29 16 48 26 ZW 993,3 10 60 0,0
18.09.2018 17:00:00 19,0 13,0 - - 26 14 48 26 ZZW 992,2 10 60 0,0
18.09.2018 16:00:00 17,4 14,3 - - 29 16 48 26 ZZW 992,4 10 30 0,0
18.09.2018 15:00:00 17,8 14,5 - - 15 8 - - Z 991,8 10 12 0,0
18.09.2018 14:00:00 16,9 14,4 - - 15 8 - - ZZW 991,9 10 0 0,0
18.09.2018 13:00:00 16,3 14,6 - - 13 7 - - Z 991,9 10 0 0,0
18.09.2018 12:00:00 15,8 14,1 - - 11 6 - - Z 992,3 10 0 0,0
18.09.2018 11:00:00 15,4 14,2 - - 8 4 - - Z 992,7 10 0 0,2
18.09.2018 10:00:00 14,5 13,8 13,0 13,2 5 3 - - - 993,1 7 0 1,2
18.09.2018 09:00:00 13,9 13,3 - - 11 6 - - Z 993,8 6 0 2,6
18.09.2018 08:00:00 14,4 13,1 - - 16 9 - - Z 994,1 8 0 0,2
18.09.2018 07:00:00 14,5 12,4 - - 15 8 - - ZZO 994,8 10 0 0,0
18.09.2018 06:00:00 14,2 11,9 - - 13 7 - - ZZO 995,5 10 0 0,0
18.09.2018 05:00:00 14,9 11,9 - - 15 8 - - Z 996,2 10 0 0,0
18.09.2018 04:00:00 15,1 12,1 - - 18 10 - - Z 996,6 10 0 0,0
18.09.2018 03:00:00 16,2 12,3 - - 15 8 - - Z 996,6 10 0 0,0
18.09.2018 02:00:00 16,3 12,5 - - 26 14 48 26 Z 996,7 10 0 0,0
18.09.2018 01:00:00 15,7 12,8 - - 21 11 - - Z 997,5 10 - 0,0
18.09.2018 00:00:00 16,0 12,9 - - 39 21 50 27 Z 997,9 10 0 0,0
17.09.2018 23:00:00 15,9 13,1 - - 34 18 65 35 Z 998,4 10 0 0,0
17.09.2018 22:00:00 15,8 13,2 - - 42 23 61 33 Z 998,1 10 0 0,0
17.09.2018 21:00:00 14,9 13,4 - - 35 19 54 29 Z 998,7 10 0 0,0
17.09.2018 20:00:00 13,9 12,5 - - 28 15 - - Z 999,9 10 0 0,0
17.09.2018 19:00:00 13,1 11,4 - - 28 15 - - Z 1000,7 10 0 0,0
17.09.2018 18:00:00 13,5 11,0 - - 26 14 - - Z 1002,1 10 0 0,0
17.09.2018 17:00:00 13,8 11,3 - - 21 11 - - ZZO 1003,0 10 0 0,0
17.09.2018 16:00:00 13,4 10,6 - - 13 7 - - Z 1004,4 10 0 0,0
17.09.2018 15:00:00 12,8 10,4 - - 16 9 - - Z 1005,6 10 0 0,2
17.09.2018 14:00:00 12,8 10,1 - - 21 11 - - Z 1006,2 10 0 0,0
17.09.2018 13:00:00 12,8 10,4 - - 16 9 - - ZZO 1006,9 10 0 0,0
17.09.2018 12:00:00 12,5 11,0 - - 13 7 - - ZZO 1008,0 10 0 0,2
17.09.2018 11:00:00 13,3 9,9 - - 18 10 - - ZZW 1008,7 10 0 0,0
17.09.2018 10:00:00 12,8 9,6 13,0 13,2 13 7 - - ZZW 1008,6 10 0 0,0
17.09.2018 09:00:00 12,4 9,3 - - 15 8 - - Z 1008,6 10 0 0,0
17.09.2018 08:00:00 11,6 8,9 - - 15 8 - - ZZO 1008,9 10 0 0,0
17.09.2018 07:00:00 12,1 9,1 - - 22 12 - - ZZW 1008,8 10 0 0,0
17.09.2018 06:00:00 11,7 8,7 - - 15 8 - - ZZW 1009,1 10 0 0,0
17.09.2018 05:00:00 11,6 8,6 - - 16 9 - - ZW 1009,3 10 0 0,0
17.09.2018 04:00:00 11,1 8,6 - - 18 10 - - ZZW 1009,5 10 0 0,0
17.09.2018 03:00:00 10,9 8,5 - - 18 10 - - ZZW 1009,6 10 0 0,0
17.09.2018 02:00:00 10,2 7,9 - - 18 10 - - Z 1009,7 10 0 0,0
17.09.2018 01:00:00 10,3 7,0 - - 16 9 - - ZZW 1010,0 10 - -

tt = temperatuur
td = dauwpunt
tt -20cm = temperatuur -20cm
tt -100cm = temperatuur -100cm
ff = windsnelheid
fx = windstoten
dd = windrichting
ppp = luchtdruk
vv = zicht
sd = Zonneschijnduur
rr = neerslag

Weerstations in de omgeving